Weather in Rothbury

Australia     32°44′31″S   151°20′09″E
temp.,
°C
wind,
m/s
gust,
m/s
humid.,
%
clouds,
%
prec.,
mm/h
press.,
hPa
HPBL,
m
24 july, sat
sat2401:00+8nw229671 0.0 100553
04:00+8nnw299822 0.3 1004313
07:00+9nw21097100 0.0 1005411
10:00+14nw510727 0.1 10051152
13:00+14nw6136014 0.0 10051329
16:00+12nw6126425 0.0 10061366
19:00+11wnw51562100 0.0 10061754
22:00+12wnw618585 0.0 10051785
25 july, sun
sun2501:00+11wnw718628 0.0 10051617
04:00+10wnw5177498 0.1 10051977
07:00+9wnw51564100 0.1 10071857
10:00+12wnw5124683 0.3 10102300
13:00+12wnw51240100 0.1 10102579
16:00+11wnw512497 0.1 10121971
19:00+8wnw511585 0.0 10141238
22:00+7nw512625 0.0 1015900
26 july, mon
mon2601:00+7wnw413630 0.0 1015888
04:00+6nw412683 0.0 1015560
07:00+6wnw4147015 0.0 1016514
10:00+12wnw511550 0.0 1017915
13:00+16wnw6104796 0.0 10161805
16:00+14wnw41161100 0.0 10161626
19:00+13wnw41169100 0.0 1018807
22:00+10wnw2486100 0.0 101983
27 july, tue
tue2701:00+8wnw239693 0.0 101861
04:00+7wnw25963 0.0 101998
07:00+7wnw23934 0.0 101958
10:00+16nw49490 0.0 10191366
13:00+19nw58402 0.0 10161811
16:00+18nw37460 0.0 10141476
19:00+10nw22750 0.0 101630
22:00+8wnw11850 0.0 101619
28 july, wed
wed2801:00+7nw26940 0.0 1014133
04:00+6nw24950 0.0 101276
07:00+6nw316900 0.0 1010485
10:00+16nw617460 0.0 10081121
13:00+21nw719352 0.0 10042290
16:00+16w6195214 0.0 10061738
19:00+14wnw513639 0.0 10081061
22:00+12w513600 0.0 10111072